Weather History for St-Nazaire, France

Change the Weather History Date:

Sunday, February 3, 2013

  Actual Average Record
Temperature  
Mean Temperature 40 °F -  
Max Temperature 50 °F 48 °F 57 °F (2004)
Min Temperature 30 °F 37 °F 21 °F (2012)
Degree Days  
Heating Degree Days 25    
Moisture  
Dew Point 38 °F    
Average Humidity 85    
Maximum Humidity 100    
Minimum Humidity 71    
Precipitation  
Precipitation 0.00 in - - ()
Sea Level Pressure  
Sea Level Pressure 30.33 in    
Wind  
Wind Speed 6 mph ()    
Max Wind Speed 15 mph    
Max Gust Speed -    
Visibility 6.1 miles    
Events Rain    
Averages and records for this station are not official NWS values.
T = Trace of Precipitation, MM = Missing Value Source: Averaged Metar Reports

Daily Weather History Graph

Daily Weather History Graph

Search for Another Location

Airport:

Trip Planner

Search our weather history database for the weather conditions in past years. The results will help you decide how hot, cold, wet, or windy it might be!

Date:

Astronomy

Feb. 03, 2013 Rise Set
Actual Time 8:31 AM CET 6:13 PM CET
Civil Twilight 7:59 AM CET 6:46 PM CET
Nautical Twilight 7:22 AM CET 7:23 PM CET
Astronomical Twilight 6:46 AM CET 7:58 PM CET
Moon 1:42 AM CET (2/3) 11:39 AM CET (2/3)
Length of Visible Light 10h 47m
Length of Day
9h 42m
Waning Gibbous, 51% of the Moon is Illuminated
Feb 3
Waning Gibbous
Feb 3
Last Quarter
Feb 10
New
Feb 17
First Quarter
Feb 25
Full

Hourly Weather History & Observations

Time (CET) Temp. Windchill Dew Point Humidity Pressure Visibility Wind Dir Wind Speed Gust Speed Precip Events Conditions
12:00 AM 37.4 °F 33.8 °F 30.2 °F 75% 30.33 in 6.2 mi NNW 4.6 mph - N/A   Unknown
12:30 AM 35.6 °F - 30.2 °F 81% 30.33 in 6.2 mi Variable 2.3 mph - N/A   Unknown
1:00 AM 35.6 °F - 28.4 °F 75% 30.33 in 6.2 mi Variable 1.2 mph - N/A   Unknown
1:30 AM 35.6 °F 30.7 °F 30.2 °F 81% 30.36 in 6.2 mi WNW 5.8 mph - N/A   Unknown
2:00 AM 37.4 °F 33.8 °F 30.2 °F 75% 30.36 in 6.2 mi WNW 4.6 mph - N/A   Unknown
2:30 AM 37.4 °F 32.8 °F 32.0 °F 81% 30.36 in 6.2 mi WNW 5.8 mph - N/A   Unknown
3:00 AM 35.6 °F 30.7 °F 32.0 °F 87% 30.36 in 6.2 mi WNW 5.8 mph - N/A   Unknown
3:30 AM 33.8 °F 30.8 °F 28.4 °F 81% 30.39 in 6.2 mi Variable 3.5 mph - N/A   Unknown
4:00 AM 32.0 °F - 28.4 °F 87% 30.39 in 6.2 mi Calm Calm - N/A   Unknown
4:30 AM 30.2 °F - 26.6 °F 86% 30.36 in 6.2 mi Calm Calm - N/A   Unknown
5:00 AM 30.2 °F - 28.4 °F 93% 30.36 in 6.2 mi Calm Calm - N/A   Unknown
5:30 AM 30.2 °F - 28.4 °F 93% 30.39 in 6.2 mi Variable 2.3 mph - N/A   Unknown
6:00 AM 32.0 °F 28.7 °F 30.2 °F 93% 30.39 in 6.2 mi NW 3.5 mph - N/A   Unknown
6:30 AM 30.2 °F - 28.4 °F 93% 30.36 in 6.2 mi West 1.2 mph - N/A   Unknown
7:00 AM 32.0 °F - 30.2 °F 93% 30.36 in 6.2 mi SW 1.2 mph - N/A   Unknown
7:30 AM 33.8 °F 30.8 °F 32.0 °F 93% 30.39 in 6.2 mi WSW 3.5 mph - N/A   Unknown
8:00 AM 35.6 °F 32.8 °F 33.8 °F 93% 30.39 in 6.2 mi SW 3.5 mph - N/A   Unknown
8:30 AM 37.4 °F 33.8 °F 33.8 °F 87% 30.39 in 6.2 mi WSW 4.6 mph - N/A   Unknown
9:00 AM 39.2 °F 37.0 °F 33.8 °F 81% 30.39 in 6.2 mi West 3.5 mph - N/A   Unknown
9:30 AM 37.4 °F - 32.0 °F 81% 30.39 in 6.2 mi West 2.3 mph - N/A   Unknown
10:00 AM 37.4 °F - 32.0 °F 81% 30.39 in 6.2 mi SW 2.3 mph - N/A   Unknown
10:30 AM 41.0 °F 39.0 °F 37.4 °F 87% 30.39 in 6.2 mi WSW 3.5 mph - N/A   Unknown
11:00 AM 44.6 °F 41.4 °F 37.4 °F 76% 30.39 in 6.2 mi SW 5.8 mph - N/A   Unknown
11:30 AM 44.6 °F 40.7 °F 39.2 °F 81% 30.39 in 6.2 mi SW 6.9 mph - N/A   Unknown
12:00 PM 46.4 °F 41.9 °F 37.4 °F 71% 30.39 in 6.2 mi SW 9.2 mph - N/A   Unknown
12:30 PM 46.4 °F 41.9 °F 37.4 °F 71% 30.36 in 6.2 mi SW 9.2 mph - N/A   Unknown
1:00 PM 48.2 °F - 39.2 °F 71% 30.33 in 6.2 mi SW 11.5 mph - N/A   Unknown
1:30 PM 48.2 °F - 39.2 °F 71% 30.33 in 6.2 mi SSW 13.8 mph - N/A   Unknown
2:00 PM 48.2 °F - 41.0 °F 76% 30.33 in 6.2 mi SSW 12.7 mph - N/A   Unknown
2:30 PM 48.2 °F - 41.0 °F 76% 30.30 in 6.2 mi SSW 11.5 mph - N/A   Overcast
3:00 PM 48.2 °F - 41.0 °F 76% 30.30 in 6.2 mi SW 9.2 mph - N/A   Overcast
3:30 PM 50.0 °F - 42.8 °F 76% 30.30 in 6.2 mi WSW 11.5 mph - N/A   Overcast
4:00 PM 50.0 °F - 42.8 °F 76% 30.27 in 6.2 mi WSW 11.5 mph - N/A   Overcast
4:30 PM 50.0 °F - 42.8 °F 76% 30.27 in 6.2 mi WSW 12.7 mph - N/A Rain Light Rain
5:00 PM 50.0 °F - 42.8 °F 76% 30.27 in 6.2 mi West 15.0 mph - N/A   Overcast
5:30 PM 50.0 °F - 42.8 °F 76% 30.27 in 6.2 mi West 15.0 mph - N/A   Overcast
6:00 PM 48.2 °F - 46.4 °F 93% 30.27 in 6.2 mi WSW 11.5 mph - N/A   Overcast
6:30 PM 48.2 °F - 46.4 °F 93% 30.27 in 6.2 mi WSW 12.7 mph - N/A   Overcast
7:00 PM 50.0 °F - 48.2 °F 94% 30.27 in 3.1 mi WSW 13.8 mph - N/A   Overcast
7:30 PM 50.0 °F - 48.2 °F 94% 30.24 in 6.2 mi WSW 13.8 mph - N/A   Overcast
8:00 PM 50.0 °F - 50.0 °F 100% 30.24 in 6.2 mi West 12.7 mph - N/A   Overcast
8:30 PM 50.0 °F - 50.0 °F 100% 30.24 in 6.2 mi West 12.7 mph - N/A   Overcast
9:00 PM 50.0 °F - 48.2 °F 94% 30.24 in 6.2 mi West 13.8 mph - N/A   Overcast
9:30 PM 50.0 °F - 48.2 °F 94% 30.24 in 6.2 mi West 12.7 mph - N/A   Overcast
10:00 PM 50.0 °F - 48.2 °F 94% 30.24 in 6.2 mi West 9.2 mph - N/A   Overcast
10:30 PM 50.0 °F - 48.2 °F 94% 30.24 in 6.2 mi West 9.2 mph - N/A   Overcast
11:00 PM 50.0 °F - 48.2 °F 94% 30.24 in 6.2 mi West 9.2 mph - N/A   Overcast
11:30 PM 50.0 °F - 48.2 °F 94% 30.24 in 6.2 mi WSW 10.4 mph - N/A   Overcast